Lancaster, PA

4:23 AM EST on February 10, 2016 (GMT -0500)
Lancaster

Weather History for KLNS - July, 2013

Change the Weather History Date:

Friday, July 19, 2013

  Actual Average Record
Temperature  
Mean Temperature 84 °F -  
Max Temperature 93 °F 89 °F 98 °F (1991)
Min Temperature 75 °F 65 °F 57 °F (1985)
Cooling Degree Days 19    
Growing Degree Days 34 (Base 50)    
Moisture  
Dew Point 72 °F    
Average Humidity 71    
Maximum Humidity 94    
Minimum Humidity 50    
Precipitation  
Precipitation 0.02 in - - ()
Sea Level Pressure  
Sea Level Pressure 29.93 in    
Wind  
Wind Speed 3 mph (West)    
Max Wind Speed 14 mph    
Max Gust Speed 22 mph    
Visibility 7 miles    
Events Rain , Thunderstorm    
Averages and records for this station are not official NWS values.
T = Trace of Precipitation, MM = Missing Value Source: NWS Daily Summary

Daily Weather History Graph

Daily Weather History Graph

Search for Another Location

Airport or City:

Trip Planner

Search our weather history database for the weather conditions in past years. The results will help you decide how hot, cold, wet, or windy it might be!

Date:

Astronomy

Jul. 19, 2013 Rise Set
Actual Time 5:52 AM EDT 8:30 PM EDT
Civil Twilight 5:20 AM EDT 9:02 PM EDT
Nautical Twilight 4:40 AM EDT 9:41 PM EDT
Astronomical Twilight 3:56 AM EDT 10:25 PM EDT
Moon 5:30 PM EDT (7/19) 2:31 AM EDT (7/19)
Length of Visible Light 15h 41m
Length of Day
14h 38m
Waxing Gibbous, 86% of the Moon is Illuminated
Jul 19
Waxing Gibbous
Jul 22
Full
Jul 29
Last Quarter
Aug 6
New
Aug 14
First Quarter

Hourly Weather History & Observations

Time (EDT) Temp. Heat Index Dew Point Humidity Pressure Visibility Wind Dir Wind Speed Gust Speed Precip Events Conditions
12:53 AM 80.1 °F 84.2 °F 73.0 °F 79% 30.01 in 8.0 mi Calm Calm - N/A   Mostly Cloudy
1:53 AM 79.0 °F - 73.9 °F 84% 30.00 in 6.0 mi Calm Calm - N/A   Haze
2:53 AM 78.1 °F - 73.0 °F 84% 30.00 in 6.0 mi Calm Calm - N/A   Haze
3:53 AM 78.1 °F - 73.0 °F 84% 29.99 in 6.0 mi Calm Calm - N/A   Haze
4:53 AM 75.9 °F - 73.0 °F 91% 29.98 in 5.0 mi Calm Calm - N/A   Clear
5:53 AM 75.0 °F - 73.0 °F 94% 29.98 in 4.0 mi Calm Calm - N/A   Clear
6:14 AM 77.0 °F - 73.4 °F 89% 29.99 in 2.5 mi Calm Calm - N/A   Clear
6:34 AM 75.2 °F - 73.4 °F 94% 29.99 in 3.0 mi Calm Calm - N/A   Clear
6:53 AM 77.0 °F - 73.9 °F 90% 29.98 in 3.0 mi Calm Calm - N/A   Clear
7:53 AM 81.0 °F 86.7 °F 75.0 °F 82% 29.98 in 4.0 mi Calm Calm - N/A   Haze
8:53 AM 84.0 °F 91.9 °F 75.0 °F 74% 29.99 in 4.0 mi WNW 5.8 mph - N/A   Haze
9:53 AM 86.0 °F 95.1 °F 75.0 °F 70% 29.98 in 4.0 mi West 5.8 mph - N/A   Haze
10:53 AM 89.1 °F 99.1 °F 75.0 °F 63% 29.98 in 5.0 mi WNW 5.8 mph - N/A   Haze
11:53 AM 90.0 °F 100.2 °F 75.0 °F 61% 29.97 in 6.0 mi West 9.2 mph - N/A   Haze
12:40 PM 91.4 °F 102.5 °F 75.2 °F 59% 29.96 in 7.0 mi Variable 6.9 mph - N/A Thunderstorm Scattered Clouds
12:53 PM 90.0 °F 97.9 °F 73.0 °F 57% 29.95 in 7.0 mi West 6.9 mph - N/A Thunderstorm Thunderstorm
1:42 PM 84.2 °F 90.9 °F 73.4 °F 70% 29.95 in 4.0 mi WNW 9.2 mph - 0.01 in Rain Light Rain
1:53 PM 84.9 °F 92.1 °F 73.9 °F 69% 29.93 in 6.0 mi Calm Calm - 0.01 in Rain , Thunderstorm Light Thunderstorms and Rain
2:13 PM 91.4 °F 105.1 °F 77.0 °F 63% 29.93 in 7.0 mi WSW 4.6 mph - 0.00 in   Clear
2:53 PM 91.9 °F 101.3 °F 73.9 °F 55% 29.90 in 7.0 mi SW 9.2 mph - 0.00 in   Clear
3:53 PM 93.0 °F 101.9 °F 73.0 °F 52% 29.86 in 8.0 mi WSW 11.5 mph 20.7 mph 0.01 in   Scattered Clouds
4:53 PM 93.0 °F 100.7 °F 72.0 °F 50% 29.85 in 7.0 mi SW 12.7 mph - N/A   Scattered Clouds
5:53 PM 90.0 °F 96.4 °F 71.1 °F 54% 29.86 in 7.0 mi WSW 12.7 mph - N/A   Partly Cloudy
6:53 PM 82.0 °F 84.1 °F 66.0 °F 58% 29.85 in 10.0 mi West 5.8 mph - N/A   Partly Cloudy
7:53 PM 81.0 °F 83.8 °F 68.0 °F 65% 29.87 in 9.0 mi SW 3.5 mph - N/A   Partly Cloudy
8:14 PM 82.4 °F 84.6 °F 66.2 °F 58% 29.89 in 9.0 mi West 8.1 mph - N/A Thunderstorm Mostly Cloudy
8:53 PM 80.1 °F 82.1 °F 66.0 °F 62% 29.87 in 10.0 mi West 13.8 mph 21.9 mph N/A Thunderstorm Clear
9:00 PM 78.8 °F - 66.2 °F 65% 29.88 in 10.0 mi West 9.2 mph 19.6 mph N/A   Clear
9:53 PM 77.0 °F - 66.9 °F 71% 29.85 in 10.0 mi NW 4.6 mph - N/A   Partly Cloudy
10:53 PM 77.0 °F - 68.0 °F 74% 29.86 in 10.0 mi SSW 4.6 mph - N/A   Clear
11:53 PM 78.1 °F - 66.0 °F 66% 29.87 in 10.0 mi SSW 3.5 mph - N/A   Clear